Content
SEND FEEDBACK

Daily
Averages
Monthly
Summary
Canada

MONTREAL, QUEBEC


Home > North America > Canada > Quebec
Elevation: 118 feet     Latitude: 45 28N     Longitude: 073 45W

WEATHER
 
SELECT A DAY
Number of Records: 197,913;   Date Range: 1/1/95 - 7/11/14
 
SHARE

PRINT THIS DATA

[ ← Previous Day ]
WEATHER ALMANAC - JULY 8, 2013
[ Next Day → ]
[ °C ]   °F
We're sorry. There is no daily almanac available for Montreal, Quebec on July 8, 2013.
WEATHER BY HOUR - JULY 8, 2013
[ °C ]   °F
Local TimeTemperatureDewpointHumidityBarometerVisibilityWind DirectionWind SpeedGust SpeedPrecipitationEventsConditions
1:00 AM66.2 °F64.4 °F94 %29.96 in12.0 miSE (130°)3.5 mphOvercast
1:33 AM66.2 °F64.4 °F94 %29.96 in12.0 miENE (70°)3.5 mphRainLight Rain Showers
2:00 AM67.0 °F65.0 °F92 %29.96 in12.0 miNorth4.6 mphRainLight Rain Showers
2:00 AM68.0 °F66.2 °F94 %29.96 in12.0 miNorth (350°)4.6 mphRainLight Rain Showers
2:08 AM66.2 °F66.2 °F100 %29.96 in10.0 miNorth (350°)5.8 mphRainLight Rain Showers
3:00 AM66.2 °F62.6 °F88 %29.95 in8.0 miNorth (10°)8.1 mphRainLight Rain Showers
4:00 AM64.4 °F62.6 °F94 %29.96 in10.0 miNNE (30°)9.2 mphRainLight Rain Showers
5:00 AM64.4 °F59.0 °F83 %29.98 in10.0 miNE (50°)12.7 mphRainLight Rain Showers
5:33 AM64.4 °F55.4 °F73 %29.98 in15.0 miNE (50°)15.0 mphMostly Cloudy
6:00 AM62.6 °F57.2 °F82 %29.98 in15.0 miNNE (20°)8.1 mphOvercast
7:00 AM64.4 °F53.6 °F68 %29.99 in12.0 miNE (40°)10.4 mphMostly Cloudy
8:00 AM65.0 °F53.0 °F56 %30.01 in15.0 miNNE (30°)11.5 mphPartly Cloudy
8:00 AM66.2 °F53.6 °F64 %30.01 in15.0 miNNE (20°)13.8 mphMostly Cloudy
9:00 AM68.0 °F55.4 °F64 %30.01 in15.0 miNE (40°)15.0 mph20.7 mphMostly Cloudy
10:00 AM71.6 °F55.4 °F57 %30.02 in15.0 miNNE (30°)15.0 mphScattered Clouds
11:00 AM71.6 °F57.2 °F60 %30.02 in15.0 miNNE (30°)10.4 mphScattered Clouds
12:00 PM75.2 °F55.4 °F50 %30.03 in15.0 miNorth (360°)11.5 mphScattered Clouds
1:00 PM75.2 °F0.0 °F30.03 in15.0 miNE (50°)9.2 mphMostly Cloudy
2:00 PM76.0 °F55.0 °F38 %30.03 in15.0 miNNE (30°)9.2 mphScattered Clouds
2:00 PM77.0 °F55.4 °F47 %30.03 in15.0 miNNE (20°)8.1 mphMostly Cloudy
3:00 PM77.0 °F59.0 °F54 %30.02 in15.0 miNE (50°)9.2 mphMostly Cloudy
4:00 PM77.0 °F57.2 °F50 %30.01 in15.0 miNorth (10°)5.8 mphPartly Cloudy
5:00 PM77.0 °F59.0 °F54 %30.01 in15.0 miNE (50°)3.5 mphPartly Cloudy
6:00 PM77.0 °F59.0 °F54 %30.01 in15.0 miNNE (30°)3.5 mphMostly Cloudy
7:00 PM77.0 °F59.0 °F54 %30.01 in15.0 miNNE (30°)6.9 mphMostly Cloudy
8:00 PM75.0 °F58.0 °F45 %30.02 in15.0 miENE (60°)9.2 mphMostly Cloudy
8:00 PM75.2 °F57.2 °F53 %30.02 in15.0 miENE (60°)9.2 mphMostly Cloudy
9:00 PM73.4 °F59.0 °F61 %30.04 in15.0 miNE (50°)8.1 mphMostly Cloudy
10:00 PM71.6 °F55.4 °F57 %30.05 in15.0 miNE (50°)6.9 mphMostly Cloudy
11:00 PM71.6 °F53.6 °F53 %30.04 in15.0 miEast (80°)4.6 mphScattered Clouds
Hourly data recorded from CYUL, located miles away from Montreal, Quebec







STORIES FROM OUR PARTNERS